885  
NZUS93 KARX 230210  
HRRWXR  
 
CURRENT HOURLY OBSERVATIONS ACROSS  
MUCH OF THE UPPER MISSISSIPPI VALLEY  
NATIONAL WEATHER SERVICE LA CROSSE WI  
800 PM CST SUN JAN 22 2017  
 
   
..SOUTHEAST MINNESOTA
 
 
 
CITY SKY/WX TMP DP RH WIND PRES REMARKS  
ROCHESTER CLOUDY 34 34 100 NW8 29.76R FOG WCI 27  
ROCHESTER/MAYO CLOUDY 36 36 100 W7 29.76R WCI 30  
WINONA CLOUDY 36 36 100 CALM 29.77R FOG  
AUSTIN CLOUDY 36 34 93 NW10 29.77R FOG WCI 28  
ALBERT LEA CLOUDY 34 34 100 NW6 29.78R FOG WCI 29  
DODGE CENTER FOG 34 34 100 CALM 29.76R VSB 1  
PRESTON CLOUDY 33 32 96 NW8 29.76R FOG WCI 26  
OWATONNA CLOUDY 34 32 93 W5 29.78R FOG WCI 30  
FARIBAULT NOT AVBL  

 
   
..ELSEWHERE IN MINNESOTA
 
 
 
CITY SKY/WX TMP DP RH WIND PRES REMARKS  
MINNEAPOLIS CLOUDY 37 34 89 W6 29.77R WCI 32  
INTNL FALLS CLOUDY 35 33 92 NW3 29.72S FOG  
DULUTH CLOUDY 35 34 96 N3 29.71R  
RED WING CLOUDY 36 34 93 CALM 29.76R FOG  
REDWOOD FALLS CLOUDY 33 29 85 W12 29.81R FOG WCI 24  
MANKATO MIX PCPN 33 32 96 W13 29.81R FOG WCI 24  
WORTHINGTON CLOUDY 30 29 96 W15 29.83R WCI 19  
FAIRMONT MIX PCPN 33 32 96 NW9 29.82R FOG WCI 25  

 
   
..SOUTHWEST WISCONSIN
 
 
 
CITY SKY/WX TMP DP RH WIND PRES REMARKS  
LA CROSSE CLOUDY 39 35 86 NW3 29.75R  
PRAIRIE DU CHI CLOUDY 37 34 90 NW8 29.74S WCI 30  
BOSCOBEL CLOUDY 38 36 92 VRB3 29.74S  
LONE ROCK CLOUDY 38 35 89 NW8 29.72S WCI 32  
PLATTEVILLE CLOUDY 37 37 100 NW10 29.70S WCI 29  
FORT MC COY CLOUDY 34 34 100 CALM 29.75R  
CAMP DOUGLAS FOG 36 36 100 W6 29.72R VSB 1 WCI 31  
MAUSTON-NEW LI FOG 35 35 99 NW6 29.71S VSB 3/4 WCI 30  
VIROQUA CLOUDY 34 34 100 NW7 29.72R VSB 1/4 WCI 28  
WIS DELLS FOG 36 36 100 NW3 29.70S VSB 1/2  

 
   
..ELSEWHERE IN WISCONSIN
 
 
 
CITY SKY/WX TMP DP RH WIND PRES REMARKS  
MILWAUKEE CLOUDY 40 36 86 N7 29.66F FOG  
MADISON CLOUDY 37 35 92 NW7 29.70S WCI 32  
GREEN BAY FOG 37 37 100 CALM 29.69R VSB 1/2  
EAU CLAIRE CLOUDY 35 34 96 W3 29.74R FOG  
BLACK RVR FLS CLOUDY 36 36 100 CALM 29.73S  
MEDFORD FOG 33 33 99 NW5 29.69S VSB 3/4 WCI 29  
WAUSAU CLOUDY 36 35 96 NW6 29.68R WCI 31  
WIS RAPIDS CLOUDY 35 35 100 NW5 29.71S WCI 31  
MARSHFIELD FOG 34 33 96 NW7 29.69R VSB 3/4 WCI 28  
RICE LAKE FOG 35 35 99 W3 29.75R VSB 1/4  

 
   
..NORTHEAST IOWA
 
 
 
CITY SKY/WX TMP DP RH WIND PRES REMARKS  
WATERLOO CLOUDY 35 33 92 NW9 29.76S WCI 28  
DUBUQUE CLOUDY 35 34 96 N14 29.70S FOG WCI 26  
DECORAH CLOUDY 36 34 93 N6 29.74R FOG WCI 31  
MASON CITY FOG 34 34 100 NW7 29.80R VSB 1/2 WCI 28  
CHARLES CITY CLOUDY 36 36 100 NW9 29.78R FOG WCI 29  
OELWEIN N/A 34 34 100 NW10 29.75S WCI 26  

 
   
..ELSEWHERE IN IOWA
 
 
 
CITY SKY/WX TMP DP RH WIND PRES REMARKS  
DES MOINES CLOUDY 38 36 92 NW9 29.81R WCI 31  
IOWA CITY CLOUDY 39 35 86 NW10 29.75R WCI 32  
FORT DODGE CLOUDY 36 34 93 NW9 29.82R WCI 29  
MARSHALLTOWN CLOUDY 36 35 96 NW10 29.78R WCI 28  
CEDAR RAPIDS CLOUDY 35 34 96 NW15 29.73R WCI 25  

 
   
..NORTHERN ILLINOIS
 
 
 
CITY SKY/WX TMP DP RH WIND PRES REMARKS  
CHICAGO-OHARE CLOUDY 40 37 89 N7 29.65R  
CHICAGO-MIDWAY CLOUDY 42 36 79 N9 29.65R  
MOLINE CLEAR 37 33 85 NW7 29.69S WCI 32  
ROCKFORD MOCLDY 36 35 96 N5 29.67F FOG WCI 32  
PEORIA CLOUDY 40 36 86 N5 29.68R  

 
 
NOTE: "FAIR" INDICATES FEW OR NO CLOUDS BELOW 12,000 FEET WITH NO  
SIGNIFICANT WEATHER AND/OR OBSTRUCTIONS TO VISIBILITY. WIND  
SPEEDS ARE IN MILES-PER-HOUR.  
 
 
CLICK HERE TO GO TO PREVIOUS BULLETINS.

The Nexlab WI Page
The Nexlab IA Page
The Nexlab MN Page Main Text Page